M I D A S
Marine Information and Data Acquisition System
Tripno 1859 of the Zeeleeuw from 2010-04-12 07:55:30 to 2010-04-12 13:48:43
Back to CruiseResearch ActivitiesStationsMapUnderway DataData graphs

EquipmentUnitsComments
TimeDGPSUTC
LatitudeDGPSDM.mWGS84
LongitudeDGPSDM.mWGS84
SpeedMeteo Stationm/sRelative wind speed
DirectionMeteo StationdegRelative wind direction
TemperatureMeteo Stationdeg CelciusAir temperature
PressureMeteo StationPaAtmospheric pressure
HumidityMeteo Station%Relative humidity
Missing or incorrect values are displayed as -999
Metereological data collected by the RV Zeeleeuw from 2010-04-12 07:55:59 to 2010-04-12 13:50:35
                                                                                    Next 1000 lines
Time Latitude Longitude Speed Direction Temperature Pressure Humidity
2010-04-12 07:56:10 51°13.662 2°55.954 2.5 73 8.2 102470 36
2010-04-12 07:56:15 51°13.663 2°55.951 3.3 243 8.2 102470 36
2010-04-12 07:56:19 51°13.664 2°55.948 2.9 284 8.2 102470 39
2010-04-12 07:56:24 51°13.665 2°55.944 1.8 254 8.2 102470 39
2010-04-12 07:56:30 51°13.666 2°55.938 2.4 280 8.2 102470 37
2010-04-12 07:56:35 51°13.667 2°55.933 5.6 260 8.2 102470 37
2010-04-12 07:56:40 51°13.669 2°55.927 2.4 79 8.2 102470 37
2010-04-12 07:56:45 51°13.67 2°55.921 4.7 260 8.2 102470 38
2010-04-12 07:56:50 51°13.671 2°55.915 2 285 8.2 102470 38
2010-04-12 07:56:55 51°13.673 2°55.908 2.1 259 8.2 102470 36
2010-04-12 07:57:00 51°13.674 2°55.901 3.2 282 8.2 102470 36
2010-04-12 07:57:05 51°13.675 2°55.894 4.1 263 8.2 102470 38
2010-04-12 07:57:10 51°13.677 2°55.887 3.7 279 8.2 102470 38
2010-04-12 07:57:15 51°13.678 2°55.88 4.6 257 8.2 102480 39
2010-04-12 07:57:20 51°13.679 2°55.872 2.7 278 8.2 102480 39
2010-04-12 07:57:25 51°13.68 2°55.865 6.9 261 8.3 102480 39
2010-04-12 07:57:30 51°13.681 2°55.857 6.7 284 8.3 102480 39
2010-04-12 07:57:35 51°13.682 2°55.849 5.4 257 8.3 102480 39
2010-04-12 07:57:40 51°13.683 2°55.841 3.4 280 8.2 102470 39
2010-04-12 07:57:45 51°13.683 2°55.832 4.5 265 8.2 102480 36
2010-04-12 07:57:50 51°13.684 2°55.823 6.9 279 8.2 102480 36
2010-04-12 07:57:55 51°13.685 2°55.815 4.8 262 8.3 102480 39
2010-04-12 07:58:00 51°13.686 2°55.806 6.3 280 8.3 102480 39
2010-04-12 07:58:05 51°13.687 2°55.798 6.5 251 8.2 102480 37
2010-04-12 07:58:10 51°13.688 2°55.789 7.1 280 8.2 102480 37
2010-04-12 07:58:15 51°13.688 2°55.782 5 262 8.2 102480 38
2010-04-12 07:58:20 51°13.689 2°55.774 3.5 286 8.2 102480 38
2010-04-12 07:58:25 51°13.69 2°55.767 5 256 8.2 102480 38
2010-04-12 07:58:30 51°13.691 2°55.762 3.4 279 8.2 102480 38
2010-04-12 07:58:35 51°13.691 2°55.76 4.1 259 8.2 102480 37
2010-04-12 07:58:40 51°13.691 2°55.76 6 283 8.2 102480 37
2010-04-12 07:58:45 51°13.69 2°55.761 6.4 250 8.2 102480 39
2010-04-12 07:58:50 51°13.69 2°55.763 6.4 279 8.2 102480 39
2010-04-12 07:58:55 51°13.69 2°55.766 6.8 32 8.2 102470 39
2010-04-12 07:58:59 51°13.691 2°55.768 7.4 285 8.2 102470 39
2010-04-12 07:59:05 51°13.691 2°55.772 6.5 32 8.2 102470 39
2010-04-12 07:59:10 51°13.692 2°55.775 7 284 8.2 102480 39
2010-04-12 07:59:14 51°13.692 2°55.777 4.6 31 8.2 102470 37
2010-04-12 07:59:20 51°13.692 2°55.778 3.8 284 8.2 102470 37
2010-04-12 07:59:25 51°13.691 2°55.778 4 36 8.2 102470 36
2010-04-12 07:59:30 51°13.691 2°55.776 4.4 285 8.2 102470 36
2010-04-12 07:59:35 51°13.689 2°55.774 3.8 34 8.2 102450 39
2010-04-12 07:59:40 51°13.688 2°55.771 3.7 284 8.2 102450 39
2010-04-12 07:59:45 51°13.687 2°55.768 3.1 32 8.2 102460 39
2010-04-12 07:59:50 51°13.686 2°55.765 3.6 284 8.2 102460 39
2010-04-12 07:59:55 51°13.685 2°55.763 4.2 32 8.2 102470 38
2010-04-12 08:00:00 51°13.684 2°55.76 3.9 284 8.2 102470 38
2010-04-12 08:00:05 51°13.684 2°55.76 5.6 321 8.2 102460 38
2010-04-12 08:00:10 51°13.685 2°55.761 5.7 286 8.2 102460 38
2010-04-12 08:00:15 51°13.686 2°55.763 4.7 240 8.2 102470 36
2010-04-12 08:00:20 51°13.687 2°55.764 6.8 285 8.2 102470 36
2010-04-12 08:00:25 51°13.689 2°55.767 6.9 328 8.2 102460 36
2010-04-12 08:00:30 51°13.692 2°55.77 6.3 284 8.2 102460 36
2010-04-12 08:00:35 51°13.695 2°55.772 5.5 328 8.2 102460 36
2010-04-12 08:00:40 51°13.698 2°55.774 5.5 280 8.2 102460 36
2010-04-12 08:00:45 51°13.7 2°55.775 3.7 328 8.2 102450 38
2010-04-12 08:00:50 51°13.702 2°55.775 3.1 277 8.2 102450 38
2010-04-12 08:00:55 51°13.702 2°55.775 3.4 332 8.2 102450 38
2010-04-12 08:01:00 51°13.702 2°55.775 4.5 280 8.2 102450 38
2010-04-12 08:01:05 51°13.701 2°55.775 3.4 350 8.2 102460 39
2010-04-12 08:01:10 51°13.7 2°55.774 3.4 353 8.2 102460 39
2010-04-12 08:01:15 51°13.698 2°55.774 3.6 334 8.2 102460 36
2010-04-12 08:01:20 51°13.697 2°55.774 4.1 355 8.2 102460 36
2010-04-12 08:01:25 51°13.696 2°55.773 4.3 338 8.2 102460 36
2010-04-12 08:01:30 51°13.696 2°55.773 6.2 352 8.2 102460 36
2010-04-12 08:01:35 51°13.697 2°55.771 3.4 346 8.2 102460 36
2010-04-12 08:01:40 51°13.699 2°55.77 5.7 352 8.2 102460 36
2010-04-12 08:01:45 51°13.701 2°55.767 4.5 352 8.2 102460 39
2010-04-12 08:01:50 51°13.704 2°55.764 7.1 354 8.2 102460 39
2010-04-12 08:01:55 51°13.706 2°55.761 6.1 2 8.2 102460 37
2010-04-12 08:02:00 51°13.709 2°55.756 6.7 2 8.2 102460 37
2010-04-12 08:02:05 51°13.713 2°55.75 7 358 8.2 102450 36
2010-04-12 08:02:10 51°13.717 2°55.744 7.1 3 8.2 102450 36
2010-04-12 08:02:15 51°13.721 2°55.737 5.9 352 8.1 102450 36
2010-04-12 08:02:20 51°13.726 2°55.73 5.2 6 8.1 102450 36
2010-04-12 08:02:25 51°13.731 2°55.723 5.6 357 8.1 102440 38
2010-04-12 08:02:30 51°13.737 2°55.716 7.8 358 8.1 102440 38
2010-04-12 08:02:35 51°13.743 2°55.709 7.6 351 8.1 102440 36
2010-04-12 08:02:40 51°13.75 2°55.701 6.8 353 8.1 102440 36
2010-04-12 08:02:45 51°13.757 2°55.694 6.6 346 8.1 102450 36
2010-04-12 08:02:50 51°13.764 2°55.686 7.5 282 8.1 102450 36
2010-04-12 08:02:55 51°13.772 2°55.679 6.6 344 8 102450 37
2010-04-12 08:03:00 51°13.779 2°55.671 6.4 351 8 102450 37
2010-04-12 08:03:05 51°13.788 2°55.664 6.8 345 8 102450 35
2010-04-12 08:03:10 51°13.796 2°55.657 7.1 281 8 102450 35
2010-04-12 08:03:15 51°13.805 2°55.649 7.7 344 8 102460 37
2010-04-12 08:03:20 51°13.813 2°55.642 10.1 279 8 102460 37
2010-04-12 08:03:25 51°13.822 2°55.634 10.4 344 8 102450 38
2010-04-12 08:03:30 51°13.831 2°55.627 10.3 347 8 102450 38
2010-04-12 08:03:35 51°13.84 2°55.619 10.7 351 8 102450 37
2010-04-12 08:03:40 51°13.85 2°55.612 10.8 279 8 102450 37
2010-04-12 08:03:45 51°13.859 2°55.604 9.8 355 8 102440 36
2010-04-12 08:03:50 51°13.869 2°55.597 8.1 352 8 102440 36
2010-04-12 08:03:55 51°13.879 2°55.589 8.2 345 7.9 102430 38
2010-04-12 08:04:00 51°13.889 2°55.582 9.2 352 7.9 102430 38
2010-04-12 08:04:05 51°13.899 2°55.574 7.1 340 7.9 102440 37
2010-04-12 08:04:10 51°13.91 2°55.567 7.5 279 7.9 102440 37
2010-04-12 08:04:15 51°13.921 2°55.559 7.4 342 7.9 102440 36
2010-04-12 08:04:20 51°13.932 2°55.551 6.5 352 7.9 102440 36
2010-04-12 08:04:25 51°13.943 2°55.543 7.6 346 7.9 102440 36
2010-04-12 08:04:30 51°13.954 2°55.535 8 280 7.9 102440 36
2010-04-12 08:04:35 51°13.966 2°55.526 8 345 7.9 102450 37
2010-04-12 08:04:40 51°13.977 2°55.518 11.6 278 7.9 102450 37
2010-04-12 08:04:45 51°13.989 2°55.509 9 354 7.9 102450 37
2010-04-12 08:04:50 51°14.001 2°55.5 8.1 350 7.9 102450 37
2010-04-12 08:04:55 51°14.013 2°55.492 7.2 345 7.9 102440 37
2010-04-12 08:05:00 51°14.025 2°55.484 8.7 284 7.9 102440 37
2010-04-12 08:05:05 51°14.037 2°55.475 9.5 348 7.9 102440 36
2010-04-12 08:05:10 51°14.05 2°55.466 7.7 350 7.9 102440 36
2010-04-12 08:05:15 51°14.062 2°55.458 9.4 345 7.9 102440 37
2010-04-12 08:05:20 51°14.075 2°55.448 9.8 280 7.9 102440 37
2010-04-12 08:05:25 51°14.087 2°55.44 8.5 342 7.9 102430 38
2010-04-12 08:05:30 51°14.1 2°55.43 8.3 279 7.9 102430 38
2010-04-12 08:05:35 51°14.113 2°55.422 10.6 351 7.9 102450 37
2010-04-12 08:05:40 51°14.126 2°55.412 8.6 352 7.9 102450 37
2010-04-12 08:05:45 51°14.139 2°55.403 9.3 347 7.9 102440 37
2010-04-12 08:05:50 51°14.153 2°55.394 8.8 349 7.9 102440 37
2010-04-12 08:05:55 51°14.166 2°55.385 8.2 344 7.9 102440 36
2010-04-12 08:06:00 51°14.18 2°55.375 8 281 7.9 102440 36
2010-04-12 08:06:05 51°14.194 2°55.365 9.6 347 7.8 102450 38
2010-04-12 08:06:10 51°14.208 2°55.355 9.2 281 7.8 102450 38
2010-04-12 08:06:15 51°14.221 2°55.344 11.2 348 7.9 102440 36
2010-04-12 08:06:19 51°14.232 2°55.334 11.7 278 7.9 102440 36
2010-04-12 08:06:24 51°14.246 2°55.322 12.2 351 7.9 102450 37
2010-04-12 08:06:29 51°14.259 2°55.309 11.9 354 7.9 102450 37
2010-04-12 08:06:34 51°14.272 2°55.295 11.8 354 7.8 102440 38
2010-04-12 08:06:39 51°14.286 2°55.28 10.8 353 7.8 102440 38
2010-04-12 08:06:44 51°14.3 2°55.265 10.3 355 7.8 102430 37
2010-04-12 08:06:49 51°14.314 2°55.25 10.9 355 7.8 102430 37
2010-04-12 08:06:55 51°14.331 2°55.23 11.8 354 7.8 102410 38
2010-04-12 08:07:00 51°14.345 2°55.213 11 355 7.8 102410 38
2010-04-12 08:07:05 51°14.36 2°55.197 10.8 350 7.7 102410 37
2010-04-12 08:07:10 51°14.374 2°55.181 13.5 353 7.7 102410 37
2010-04-12 08:07:15 51°14.389 2°55.164 11.4 353 7.7 102400 36
2010-04-12 08:07:19 51°14.401 2°55.151 11.1 352 7.7 102400 36
2010-04-12 08:07:25 51°14.418 2°55.131 11.2 353 7.7 102410 37
2010-04-12 08:07:30 51°14.434 2°55.115 12.1 354 7.7 102410 37
2010-04-12 08:07:34 51°14.446 2°55.101 11.6 353 7.7 102410 38
2010-04-12 08:07:39 51°14.46 2°55.085 11.6 353 7.7 102410 38
2010-04-12 08:07:45 51°14.478 2°55.065 11.4 354 7.7 102410 38
2010-04-12 08:07:50 51°14.493 2°55.047 12.4 355 7.7 102410 38
2010-04-12 08:07:55 51°14.508 2°55.029 12.9 355 7.7 102400 37
2010-04-12 08:07:59 51°14.519 2°55.013 12.7 354 7.7 102400 37
2010-04-12 08:08:04 51°14.532 2°54.993 12.1 353 7.7 102410 38
2010-04-12 08:08:09 51°14.546 2°54.973 13.4 353 7.7 102410 38
2010-04-12 08:08:14 51°14.56 2°54.954 13.9 352 7.7 102390 37
2010-04-12 08:08:19 51°14.574 2°54.934 11.9 353 7.7 102390 37
2010-04-12 08:08:24 51°14.588 2°54.915 12.8 354 7.7 102400 37
2010-04-12 08:08:29 51°14.602 2°54.896 12.7 353 7.7 102400 37
2010-04-12 08:08:34 51°14.616 2°54.877 12.8 355 7.7 102400 37
2010-04-12 08:08:39 51°14.63 2°54.858 12.4 353 7.6 102400 37
2010-04-12 08:08:43 51°14.641 2°54.843 11.8 351 7.6 102390 37
2010-04-12 08:08:48 51°14.655 2°54.823 12.1 351 7.6 102390 37
2010-04-12 08:08:53 51°14.669 2°54.804 12.9 353 7.6 102390 37
2010-04-12 08:08:58 51°14.683 2°54.786 11.8 352 7.6 102410 38
2010-04-12 08:09:03 51°14.697 2°54.768 12.5 351 7.6 102410 37
2010-04-12 08:09:07 51°14.709 2°54.753 12.2 352 7.6 102410 37
2010-04-12 08:09:12 51°14.723 2°54.735 11.8 351 7.6 102420 37
2010-04-12 08:09:17 51°14.737 2°54.718 11.5 348 7.6 102420 37
2010-04-12 08:09:22 51°14.752 2°54.702 10.8 350 7.6 102420 38
2010-04-12 08:09:27 51°14.767 2°54.687 13.7 349 7.6 102420 38
2010-04-12 08:09:31 51°14.779 2°54.674 14 351 7.6 102420 37
2010-04-12 08:09:36 51°14.794 2°54.658 12.7 351 7.6 102420 37
2010-04-12 08:09:41 51°14.809 2°54.642 9.6 350 7.6 102420 37
2010-04-12 08:09:47 51°14.827 2°54.623 12 278 7.6 102420 37
2010-04-12 08:09:51 51°14.839 2°54.611 9.3 351 7.6 102420 37
2010-04-12 08:09:56 51°14.854 2°54.595 9.9 351 7.6 102420 37
2010-04-12 08:10:02 51°14.872 2°54.574 10.6 353 7.6 102420 37
2010-04-12 08:10:07 51°14.886 2°54.555 13.2 354 7.6 102430 37
2010-04-12 08:10:11 51°14.898 2°54.54 12.2 354 7.6 102420 38
2010-04-12 08:10:16 51°14.912 2°54.521 11.7 355 7.6 102420 38
2010-04-12 08:10:22 51°14.928 2°54.497 12.5 352 7.6 102420 38
2010-04-12 08:10:26 51°14.939 2°54.482 11 352 7.6 102430 38
2010-04-12 08:10:31 51°14.953 2°54.463 12.9 353 7.6 102420 38
2010-04-12 08:10:36 51°14.967 2°54.444 14.5 355 7.6 102420 38
2010-04-12 08:10:42 51°14.983 2°54.421 13.5 353 7.6 102420 38
2010-04-12 08:10:46 51°14.994 2°54.407 11.8 351 7.6 102430 38
2010-04-12 08:10:51 51°15.008 2°54.389 13.4 353 7.6 102420 38
2010-04-12 08:10:56 51°15.022 2°54.372 12.8 352 7.6 102420 38
2010-04-12 08:11:02 51°15.039 2°54.351 15 353 7.6 102390 36
2010-04-12 08:11:06 51°15.05 2°54.336 12 354 7.6 102390 36
2010-04-12 08:11:11 51°15.064 2°54.319 11.7 352 7.6 102420 37
2010-04-12 08:11:16 51°15.079 2°54.303 10.4 351 7.6 102420 37
2010-04-12 08:11:22 51°15.096 2°54.282 10.9 352 7.6 102420 37
2010-04-12 08:11:26 51°15.108 2°54.269 11.9 352 7.6 102420 37
2010-04-12 08:11:31 51°15.122 2°54.251 12.7 352 7.6 102420 37
2010-04-12 08:11:36 51°15.136 2°54.234 12.3 352 7.6 102410 38
2010-04-12 08:11:42 51°15.153 2°54.213 13.1 352 7.6 102410 38
2010-04-12 08:11:47 51°15.167 2°54.195 11.7 354 7.6 102410 38
2010-04-12 08:11:51 51°15.179 2°54.181 13.6 351 7.6 102410 38
2010-04-12 08:11:56 51°15.193 2°54.163 12.4 354 7.6 102420 37
2010-04-12 08:12:01 51°15.207 2°54.145 11.7 352 7.6 102420 37
2010-04-12 08:12:06 51°15.221 2°54.127 10.1 350 7.6 102420 38
2010-04-12 08:12:11 51°15.235 2°54.11 10.6 352 7.6 102420 38
2010-04-12 08:12:16 51°15.249 2°54.091 11.5 351 7.6 102420 38
2010-04-12 08:12:22 51°15.266 2°54.07 10.4 353 7.6 102420 38
2010-04-12 08:12:26 51°15.277 2°54.056 12.7 353 7.6 102420 37
2010-04-12 08:12:31 51°15.291 2°54.038 10.9 353 7.6 102420 37
2010-04-12 08:12:36 51°15.306 2°54.02 11.6 353 7.6 102420 37
2010-04-12 08:12:42 51°15.322 2°53.998 11.1 350 7.6 102420 37
2010-04-12 08:12:46 51°15.334 2°53.983 12.6 351 7.6 102430 37
2010-04-12 08:12:51 51°15.348 2°53.965 11.4 352 7.6 102430 38
2010-04-12 08:12:56 51°15.362 2°53.947 11.7 352 7.6 102430 38
2010-04-12 08:13:02 51°15.378 2°53.926 12.2 349 7.6 102430 38
2010-04-12 08:13:06 51°15.39 2°53.911 12.8 352 7.6 102430 38
2010-04-12 08:13:11 51°15.404 2°53.894 10.8 350 7.6 102430 37
2010-04-12 08:13:17 51°15.42 2°53.871 12.1 354 7.6 102430 37
2010-04-12 08:13:22 51°15.434 2°53.853 12.3 350 7.6 102420 37
2010-04-12 08:13:26 51°15.445 2°53.838 12.1 351 7.6 102420 37
2010-04-12 08:13:31 51°15.459 2°53.82 11 349 7.6 102430 36
2010-04-12 08:13:36 51°15.473 2°53.801 12.6 350 7.6 102430 36
2010-04-12 08:13:42 51°15.49 2°53.78 12.6 351 7.6 102410 36
2010-04-12 08:13:46 51°15.501 2°53.766 11.2 349 7.6 102410 36
2010-04-12 08:13:51 51°15.516 2°53.748 10.6 350 7.6 102420 37
2010-04-12 08:13:56 51°15.529 2°53.731 12.9 351 7.6 102420 37
2010-04-12 08:14:02 51°15.546 2°53.709 13.2 350 7.6 102430 36
2010-04-12 08:14:06 51°15.558 2°53.696 13 351 7.6 102430 36
2010-04-12 08:14:11 51°15.572 2°53.679 13.5 352 7.6 102430 37
2010-04-12 08:14:15 51°15.584 2°53.666 10.6 350 7.6 102430 37
2010-04-12 08:14:22 51°15.604 2°53.642 10.9 351 7.6 102430 37
2010-04-12 08:14:26 51°15.616 2°53.63 12.2 280 7.6 102420 37
2010-04-12 08:14:31 51°15.631 2°53.614 11.6 349 7.6 102420 37
2010-04-12 08:14:36 51°15.645 2°53.599 12.2 351 7.6 102420 37
2010-04-12 08:14:42 51°15.663 2°53.58 13.8 350 7.6 102420 37
2010-04-12 08:14:46 51°15.675 2°53.568 12.5 349 7.6 102410 38
2010-04-12 08:14:51 51°15.69 2°53.553 12.9 350 7.6 102420 37
2010-04-12 08:14:56 51°15.705 2°53.539 12 349 7.6 102420 37
2010-04-12 08:15:02 51°15.723 2°53.521 12.3 350 7.6 102410 38
2010-04-12 08:15:06 51°15.735 2°53.51 12.6 281 7.6 102410 38
2010-04-12 08:15:11 51°15.75 2°53.496 12.6 348 7.6 102420 38
2010-04-12 08:15:17 51°15.768 2°53.478 13.9 349 7.6 102420 38
2010-04-12 08:15:22 51°15.783 2°53.464 14.3 348 7.6 102420 38
2010-04-12 08:15:26 51°15.796 2°53.453 13.1 278 7.6 102410 36
2010-04-12 08:15:31 51°15.811 2°53.439 12.8 349 7.6 102420 37
2010-04-12 08:15:36 51°15.826 2°53.426 11.6 279 7.6 102420 37
2010-04-12 08:15:42 51°15.845 2°53.41 13.4 347 7.6 102420 38
2010-04-12 08:15:46 51°15.857 2°53.399 14.9 347 7.6 102420 38
2010-04-12 08:15:51 51°15.872 2°53.385 15.4 350 7.6 102390 38
2010-04-12 08:15:56 51°15.888 2°53.371 12.7 349 7.6 102390 38
2010-04-12 08:16:02 51°15.906 2°53.355 12.8 348 7.6 102430 38
2010-04-12 08:16:06 51°15.919 2°53.344 14.1 348 7.6 102430 38
2010-04-12 08:16:11 51°15.934 2°53.331 13 349 7.6 102410 37
2010-04-12 08:16:15 51°15.946 2°53.32 12.7 281 7.6 102410 37
2010-04-12 08:16:22 51°15.968 2°53.301 14.3 350 7.6 102420 37
2010-04-12 08:16:26 51°15.98 2°53.29 11.5 349 7.6 102420 37
2010-04-12 08:16:31 51°15.996 2°53.277 12.3 349 7.6 102420 36
2010-04-12 08:16:36 51°16.011 2°53.264 13.6 349 7.6 102420 36
2010-04-12 08:16:42 51°16.03 2°53.249 14.1 350 7.6 102420 36
2010-04-12 08:16:46 51°16.042 2°53.238 14.2 278 7.6 102410 36
2010-04-12 08:16:51 51°16.058 2°53.226 12.1 350 7.6 102410 37
2010-04-12 08:16:56 51°16.073 2°53.213 11.2 279 7.6 102410 37
2010-04-12 08:17:02 51°16.092 2°53.198 11.7 350 7.6 102410 37
2010-04-12 08:17:06 51°16.104 2°53.187 13.6 351 7.6 102410 37
2010-04-12 08:17:11 51°16.12 2°53.175 13 351 7.6 102410 37
2010-04-12 08:17:16 51°16.135 2°53.161 12.2 283 7.6 102410 37
2010-04-12 08:17:22 51°16.154 2°53.146 12.9 347 7.6 102410 37
2010-04-12 08:17:26 51°16.167 2°53.136 12.5 348 7.6 102410 37
2010-04-12 08:17:31 51°16.182 2°53.123 12.4 348 7.6 102410 37
2010-04-12 08:17:36 51°16.198 2°53.111 12.9 278 7.6 102400 36
2010-04-12 08:17:41 51°16.215 2°53.1 12.6 347 7.6 102410 37
2010-04-12 08:17:46 51°16.23 2°53.088 11.1 279 7.6 102410 37
2010-04-12 08:17:51 51°16.247 2°53.079 12.1 345 7.6 102410 37
2010-04-12 08:17:56 51°16.263 2°53.068 13.2 280 7.6 102430 37
2010-04-12 08:18:02 51°16.282 2°53.056 13.8 347 7.6 102430 37
2010-04-12 08:18:06 51°16.295 2°53.048 12.9 345 7.6 102410 38
2010-04-12 08:18:11 51°16.312 2°53.041 13.5 342 7.7 102420 37
2010-04-12 08:18:16 51°16.328 2°53.033 12.6 345 7.7 102420 37
2010-04-12 08:18:22 51°16.348 2°53.024 15.2 342 7.7 102410 37
2010-04-12 08:18:26 51°16.362 2°53.018 15.3 283 7.7 102410 37
2010-04-12 08:18:31 51°16.378 2°53.011 16.2 342 7.7 102420 37
2010-04-12 08:18:36 51°16.395 2°53.004 11.7 283 7.7 102420 37
2010-04-12 08:18:42 51°16.415 2°52.996 12.7 344 7.7 102420 37
2010-04-12 08:18:46 51°16.429 2°52.991 13.6 279 7.7 102410 38
2010-04-12 08:18:51 51°16.445 2°52.984 14.8 344 7.7 102410 37
2010-04-12 08:18:56 51°16.462 2°52.977 12 344 7.7 102410 37
2010-04-12 08:19:02 51°16.482 2°52.968 14 342 7.7 102410 37
2010-04-12 08:19:06 51°16.495 2°52.962 13.3 282 7.7 102420 36
2010-04-12 08:19:11 51°16.512 2°52.955 13.7 346 7.7 102410 37
2010-04-12 08:19:17 51°16.532 2°52.946 11.2 278 7.7 102410 37
2010-04-12 08:19:22 51°16.548 2°52.939 14 346 7.7 102410 37
2010-04-12 08:19:26 51°16.562 2°52.933 13.1 282 7.7 102400 37
2010-04-12 08:19:31 51°16.579 2°52.926 12.8 344 7.7 102420 37
2010-04-12 08:19:36 51°16.595 2°52.918 14.3 346 7.7 102420 37
2010-04-12 08:19:42 51°16.615 2°52.909 14.7 344 7.7 102420 36
2010-04-12 08:19:46 51°16.629 2°52.904 14.6 278 7.7 102420 36
2010-04-12 08:19:51 51°16.646 2°52.897 13.3 344 7.7 102420 37
2010-04-12 08:19:56 51°16.662 2°52.889 11 282 7.7 102420 37
2010-04-12 08:20:02 51°16.683 2°52.88 12.1 345 7.7 102410 38
2010-04-12 08:20:06 51°16.696 2°52.874 13.6 283 7.7 102410 38
2010-04-12 08:20:11 51°16.712 2°52.866 14 341 7.7 102410 37
2010-04-12 08:20:15 51°16.725 2°52.859 12.8 283 7.7 102410 37
2010-04-12 08:20:22 51°16.749 2°52.848 13.6 345 7.7 102410 37
2010-04-12 08:20:26 51°16.762 2°52.842 14 347 7.7 102410 37
2010-04-12 08:20:31 51°16.778 2°52.834 13.3 346 7.7 102420 37
2010-04-12 08:20:36 51°16.794 2°52.826 13 280 7.7 102420 37
2010-04-12 08:20:42 51°16.814 2°52.817 11.4 345 7.7 102420 37
2010-04-12 08:20:46 51°16.827 2°52.81 14 348 7.7 102420 37
2010-04-12 08:20:51 51°16.844 2°52.803 13.6 346 7.7 102420 38
2010-04-12 08:20:56 51°16.86 2°52.794 13.7 279 7.7 102420 38
2010-04-12 08:21:02 51°16.88 2°52.785 12.3 347 7.7 102420 38
2010-04-12 08:21:07 51°16.896 2°52.777 13.3 346 7.7 102420 37
2010-04-12 08:21:11 51°16.909 2°52.771 13.8 347 7.7 102420 36
2010-04-12 08:21:17 51°16.928 2°52.761 13.1 280 7.7 102420 36
2010-04-12 08:21:22 51°16.945 2°52.753 13.8 343 7.7 102420 36
2010-04-12 08:21:26 51°16.958 2°52.746 13.5 346 7.7 102420 37
2010-04-12 08:21:31 51°16.974 2°52.738 13.7 346 7.7 102410 38
2010-04-12 08:21:36 51°16.991 2°52.73 13.3 281 7.7 102410 38
2010-04-12 08:21:42 51°17.011 2°52.72 14.9 344 7.7 102410 38
2010-04-12 08:21:46 51°17.024 2°52.714 14.7 282 7.7 102420 36
2010-04-12 08:21:51 51°17.04 2°52.706 13 345 7.7 102420 36
2010-04-12 08:21:56 51°17.057 2°52.697 12.7 285 7.7 102420 38
2010-04-12 08:22:02 51°17.076 2°52.687 14.2 345 7.7 102410 36
2010-04-12 08:22:06 51°17.089 2°52.682 12.8 279 7.7 102410 36
2010-04-12 08:22:11 51°17.106 2°52.673 12.5 349 7.7 102410 38
2010-04-12 08:22:17 51°17.125 2°52.663 12.1 346 7.7 102410 38
2010-04-12 08:22:21 51°17.138 2°52.656 13 345 7.7 102410 37
2010-04-12 08:22:26 51°17.155 2°52.649 12.3 283 7.7 102410 37
2010-04-12 08:22:31 51°17.171 2°52.64 13.1 345 7.7 102410 37
2010-04-12 08:22:36 51°17.187 2°52.632 14.1 346 7.7 102400 37
2010-04-12 08:22:42 51°17.207 2°52.622 13.7 346 7.7 102400 37
2010-04-12 08:22:47 51°17.223 2°52.614 13 346 7.7 102410 38
2010-04-12 08:22:51 51°17.237 2°52.607 12.8 344 7.7 102410 38
2010-04-12 08:22:56 51°17.252 2°52.599 11.7 283 7.7 102430 37
2010-04-12 08:23:02 51°17.272 2°52.59 13.2 344 7.7 102410 37
2010-04-12 08:23:06 51°17.285 2°52.583 15.5 346 7.7 102410 37
2010-04-12 08:23:11 51°17.302 2°52.576 13.8 348 7.7 102410 37
2010-04-12 08:23:16 51°17.318 2°52.568 11.7 285 7.7 102410 37
2010-04-12 08:23:22 51°17.338 2°52.56 11.8 342 7.7 102410 37
2010-04-12 08:23:26 51°17.351 2°52.555 13.5 282 7.7 102430 36
2010-04-12 08:23:31 51°17.368 2°52.551 13.1 340 7.7 102420 37
2010-04-12 08:23:36 51°17.385 2°52.547 13.4 280 7.7 102420 37
2010-04-12 08:23:42 51°17.405 2°52.543 13.6 341 7.7 102420 37
2010-04-12 08:23:46 51°17.419 2°52.541 11.5 278 7.7 102420 37
2010-04-12 08:23:51 51°17.436 2°52.538 12.6 338 7.7 102420 38
2010-04-12 08:23:56 51°17.453 2°52.536 12.5 285 7.7 102420 38
2010-04-12 08:24:02 51°17.473 2°52.534 15.6 340 7.7 102410 37
2010-04-12 08:24:06 51°17.487 2°52.533 14.9 284 7.7 102410 37
2010-04-12 08:24:11 51°17.504 2°52.532 15 342 7.7 102430 38
2010-04-12 08:24:17 51°17.524 2°52.53 13.8 283 7.7 102430 38
2010-04-12 08:24:22 51°17.541 2°52.529 13.9 341 7.7 102430 38
2010-04-12 08:24:26 51°17.555 2°52.529 12.8 278 7.7 102430 36
2010-04-12 08:24:31 51°17.572 2°52.528 12.4 342 7.7 102430 36
2010-04-12 08:24:36 51°17.589 2°52.526 14.6 280 7.7 102430 37
2010-04-12 08:24:42 51°17.609 2°52.525 13.5 340 7.7 102430 38
2010-04-12 08:24:46 51°17.623 2°52.524 13.3 284 7.7 102430 38
2010-04-12 08:24:51 51°17.64 2°52.523 13.5 338 7.7 102430 38
2010-04-12 08:24:56 51°17.657 2°52.522 12.8 282 7.7 102430 38
2010-04-12 08:25:02 51°17.678 2°52.521 12.6 339 7.7 102420 38
2010-04-12 08:25:06 51°17.691 2°52.521 12.8 279 7.7 102420 38
2010-04-12 08:25:11 51°17.709 2°52.522 14.1 338 7.7 102430 38
2010-04-12 08:25:16 51°17.726 2°52.522 13.9 279 7.7 102430 38
2010-04-12 08:25:22 51°17.746 2°52.524 13.1 335 7.7 102420 37
2010-04-12 08:25:27 51°17.763 2°52.525 13.3 279 7.7 102420 37
2010-04-12 08:25:31 51°17.777 2°52.526 13.3 336 7.7 102420 37
2010-04-12 08:25:36 51°17.793 2°52.529 12.5 283 7.7 102440 37
2010-04-12 08:25:41 51°17.811 2°52.531 11.3 337 7.7 102440 37
2010-04-12 08:25:47 51°17.831 2°52.535 13.2 286 7.7 102430 37
2010-04-12 08:25:51 51°17.844 2°52.537 13.1 335 7.7 102440 37
2010-04-12 08:25:56 51°17.861 2°52.541 14.2 286 7.7 102440 37
2010-04-12 08:26:02 51°17.881 2°52.545 13 337 7.7 102440 37
2010-04-12 08:26:06 51°17.895 2°52.548 14.7 282 7.7 102420 37
2010-04-12 08:26:11 51°17.911 2°52.552 13.8 338 7.8 102430 38
2010-04-12 08:26:16 51°17.928 2°52.556 16.9 286 7.8 102430 38
2010-04-12 08:26:22 51°17.948 2°52.561 14.3 336 7.8 102430 38
2010-04-12 08:26:26 51°17.962 2°52.564 13.9 286 7.8 102430 37
2010-04-12 08:26:31 51°17.978 2°52.567 12.1 337 7.8 102430 38
2010-04-12 08:26:36 51°17.995 2°52.572 13.5 282 7.8 102430 38
2010-04-12 08:26:42 51°18.015 2°52.579 15.5 333 7.7 102440 37
2010-04-12 08:26:46 51°18.027 2°52.587 13.7 280 7.7 102440 37
2010-04-12 08:26:51 51°18.042 2°52.599 15 332 7.7 102420 38
2010-04-12 08:26:56 51°18.057 2°52.61 12.7 280 7.7 102420 38
2010-04-12 08:27:01 51°18.071 2°52.624 11.4 330 7.8 102430 37
2010-04-12 08:27:06 51°18.085 2°52.638 14.1 286 7.8 102430 37
2010-04-12 08:27:11 51°18.099 2°52.653 13.1 327 7.8 102440 37
2010-04-12 08:27:15 51°18.11 2°52.665 12.8 283 7.8 102440 37
2010-04-12 08:27:22 51°18.127 2°52.69 13 325 7.7 102430 38
2010-04-12 08:27:26 51°18.138 2°52.704 17 282 7.7 102430 38
2010-04-12 08:27:31 51°18.149 2°52.724 13.3 325 7.8 102420 37
2010-04-12 08:27:36 51°18.159 2°52.745 14.4 283 7.8 102420 37
2010-04-12 08:27:42 51°18.172 2°52.77 15.1 322 7.8 102420 37
2010-04-12 08:27:46 51°18.178 2°52.789 13.9 285 7.8 102430 37
2010-04-12 08:27:51 51°18.188 2°52.811 14.8 320 7.8 102430 37
2010-04-12 08:27:56 51°18.195 2°52.836 14 283 7.8 102430 37
2010-04-12 08:28:01 51°18.203 2°52.859 16.5 321 7.8 102420 37
2010-04-12 08:28:07 51°18.212 2°52.889 14.8 285 7.8 102420 37
2010-04-12 08:28:11 51°18.217 2°52.909 12.9 318 7.8 102430 38
2010-04-12 08:28:17 51°18.225 2°52.939 17.3 282 7.8 102430 38
2010-04-12 08:28:22 51°18.231 2°52.965 14.8 317 7.8 102430 38
2010-04-12 08:28:26 51°18.236 2°52.986 13.2 282 7.8 102420 37
2010-04-12 08:28:31 51°18.242 2°53.011 12.9 318 7.8 102430 37
2010-04-12 08:28:36 51°18.247 2°53.037 17.1 284 7.8 102430 37
2010-04-12 08:28:42 51°18.256 2°53.067 14.3 318 7.8 102410 38
2010-04-12 08:28:46 51°18.26 2°53.088 13.6 278 7.8 102410 38
2010-04-12 08:28:51 51°18.267 2°53.113 14.8 320 7.8 102430 37
2010-04-12 08:28:57 51°18.274 2°53.143 15.3 285 7.8 102430 37
2010-04-12 08:29:02 51°18.282 2°53.168 13.3 318 7.8 102430 37
2010-04-12 08:29:06 51°18.287 2°53.189 14.2 279 7.8 102430 37
2010-04-12 08:29:11 51°18.294 2°53.213 13 318 7.8 102420 38
2010-04-12 08:29:15 51°18.299 2°53.234 13.3 282 7.8 102420 38
2010-04-12 08:29:22 51°18.309 2°53.269 14.8 319 7.8 102430 37
2010-04-12 08:29:26 51°18.314 2°53.289 13.1 278 7.8 102430 37
2010-04-12 08:29:31 51°18.321 2°53.314 13.7 320 7.8 102420 37
2010-04-12 08:29:36 51°18.328 2°53.339 13.8 283 7.8 102420 37
2010-04-12 08:29:42 51°18.336 2°53.369 12.2 317 7.8 102420 37
2010-04-12 08:29:46 51°18.342 2°53.389 15 279 7.9 102420 36
2010-04-12 08:29:51 51°18.349 2°53.415 12.7 317 7.9 102420 38
2010-04-12 08:29:56 51°18.356 2°53.44 13.7 283 7.9 102420 38
2010-04-12 08:30:02 51°18.364 2°53.469 12.8 321 7.9 102420 38
2010-04-12 08:30:07 51°18.371 2°53.494 13.1 283 7.9 102430 38
2010-04-12 08:30:11 51°18.377 2°53.514 13.4 319 7.9 102420 38
2010-04-12 08:30:16 51°18.384 2°53.539 13.5 283 7.9 102420 38
2010-04-12 08:30:21 51°18.391 2°53.564 15.2 318 7.9 102430 36
2010-04-12 08:30:26 51°18.398 2°53.589 13.3 284 7.9 102430 36
2010-04-12 08:30:31 51°18.405 2°53.615 16 318 7.9 102420 36
2010-04-12 08:30:36 51°18.412 2°53.64 14.9 283 7.9 102420 36
2010-04-12 08:30:41 51°18.419 2°53.665 11.7 321 7.9 102430 37
2010-04-12 08:30:46 51°18.425 2°53.69 15 283 7.9 102430 37
2010-04-12 08:30:51 51°18.432 2°53.715 14.6 316 7.9 102430 37
2010-04-12 08:30:56 51°18.439 2°53.741 12.7 283 7.9 102420 36
2010-04-12 08:31:02 51°18.447 2°53.77 14.4 320 7.9 102420 36
2010-04-12 08:31:06 51°18.452 2°53.79 13.3 283 7.9 102420 37
2010-04-12 08:31:11 51°18.459 2°53.815 15 319 7.9 102420 37
2010-04-12 08:31:16 51°18.466 2°53.841 13.2 279 7.9 102420 37
2010-04-12 08:31:22 51°18.475 2°53.87 12.8 320 7.9 102440 38
2010-04-12 08:31:26 51°18.48 2°53.891 13.1 284 7.9 102440 38
2010-04-12 08:31:31 51°18.488 2°53.916 12.6 321 7.9 102420 37
2010-04-12 08:31:36 51°18.495 2°53.941 13.7 282 7.9 102420 37
2010-04-12 08:31:42 51°18.503 2°53.971 15 319 7.9 102420 38
2010-04-12 08:31:46 51°18.51 2°53.991 14 283 7.9 102420 38
2010-04-12 08:31:51 51°18.516 2°54.017 16.9 319 7.9 102420 37
2010-04-12 08:31:56 51°18.524 2°54.041 15.9 284 7.9 102420 37
2010-04-12 08:32:01 51°18.529 2°54.067 15.5 320 7.9 102420 37
2010-04-12 08:32:06 51°18.537 2°54.091 14.3 283 7.9 102420 37
2010-04-12 08:32:11 51°18.543 2°54.117 14.1 319 7.9 102430 37
2010-04-12 08:32:17 51°18.552 2°54.147 13.3 283 7.9 102430 37
2010-04-12 08:32:22 51°18.558 2°54.172 15.7 319 7.9 102430 37
2010-04-12 08:32:26 51°18.564 2°54.192 17.8 282 7.9 102430 36
2010-04-12 08:32:31 51°18.571 2°54.217 15.4 320 7.9 102430 37
2010-04-12 08:32:36 51°18.578 2°54.242 16.5 279 7.9 102430 37
2010-04-12 08:32:42 51°18.586 2°54.272 13.8 317 7.9 102430 37
2010-04-12 08:32:46 51°18.591 2°54.292 12.8 279 7.9 102420 37
2010-04-12 08:32:51 51°18.598 2°54.317 14.3 320 7.9 102430 37
2010-04-12 08:32:56 51°18.604 2°54.342 13.9 287 7.9 102430 37
2010-04-12 08:33:01 51°18.611 2°54.367 14.5 319 7.9 102430 37
2010-04-12 08:33:06 51°18.618 2°54.392 12.9 284 7.9 102430 37
2010-04-12 08:33:11 51°18.625 2°54.418 15 321 7.9 102390 37
2010-04-12 08:33:17 51°18.633 2°54.448 13.9 281 7.9 102390 37
2010-04-12 08:33:22 51°18.64 2°54.473 15.5 319 7.9 102390 37
2010-04-12 08:33:26 51°18.645 2°54.493 14.8 279 7.9 102440 37
2010-04-12 08:33:31 51°18.652 2°54.519 12.9 321 7.9 102410 37
2010-04-12 08:33:36 51°18.659 2°54.544 16.3 281 7.9 102410 37
2010-04-12 08:33:42 51°18.666 2°54.574 14.2 317 7.9 102390 37
2010-04-12 08:33:46 51°18.672 2°54.594 13.8 287 7.9 102390 37
2010-04-12 08:33:51 51°18.678 2°54.62 11.9 318 7.9 102420 37
2010-04-12 08:33:56 51°18.686 2°54.644 15.2 286 7.9 102420 37
2010-04-12 08:34:02 51°18.693 2°54.675 12.6 319 7.9 102420 36
2010-04-12 08:34:06 51°18.7 2°54.694 14.1 286 7.9 102420 36
2010-04-12 08:34:11 51°18.706 2°54.72 11.7 318 8 102380 36
2010-04-12 08:34:15 51°18.712 2°54.74 12.6 282 8 102380 36
2010-04-12 08:34:22 51°18.721 2°54.776 14.3 319 8 102380 36
2010-04-12 08:34:26 51°18.728 2°54.795 13 279 7.9 102400 37
2010-04-12 08:34:31 51°18.734 2°54.822 13.6 317 8 102420 37
2010-04-12 08:34:36 51°18.742 2°54.846 13.7 283 8 102420 37
2010-04-12 08:34:42 51°18.75 2°54.876 14.4 318 8 102420 37
2010-04-12 08:34:46 51°18.756 2°54.896 15.7 283 8 102420 37
2010-04-12 08:34:51 51°18.762 2°54.921 15.9 319 8 102430 37
2010-04-12 08:34:56 51°18.769 2°54.946 14.6 283 8 102430 37
2010-04-12 08:35:02 51°18.777 2°54.977 15.1 317 8 102430 37
2010-04-12 08:35:06 51°18.783 2°54.997 13.5 280 8 102400 36
2010-04-12 08:35:11 51°18.789 2°55.022 13.7 319 8 102410 37
2010-04-12 08:35:17 51°18.798 2°55.052 14.2 282 8 102410 37
2010-04-12 08:35:22 51°18.804 2°55.078 13.9 319 8 102410 37
2010-04-12 08:35:26 51°18.81 2°55.098 12.8 283 7.9 102420 36
2010-04-12 08:35:31 51°18.816 2°55.123 14 320 7.9 102420 36
2010-04-12 08:35:36 51°18.823 2°55.148 13.2 280 8 102410 37
2010-04-12 08:35:42 51°18.832 2°55.178 14 318 8 102420 36
2010-04-12 08:35:46 51°18.837 2°55.198 13.4 282 8 102420 36
2010-04-12 08:35:51 51°18.844 2°55.224 13.9 317 8 102400 37
2010-04-12 08:35:56 51°18.85 2°55.249 14 282 8 102400 37
2010-04-12 08:36:02 51°18.858 2°55.279 13.6 320 8 102420 37
2010-04-12 08:36:06 51°18.864 2°55.299 13.5 282 8 102420 37
2010-04-12 08:36:11 51°18.871 2°55.324 12 320 8 102410 37
2010-04-12 08:36:16 51°18.877 2°55.349 12.4 279 8 102410 37
2010-04-12 08:36:21 51°18.884 2°55.374 15.5 319 8 102420 36
2010-04-12 08:36:26 51°18.891 2°55.399 14.2 282 8 102420 36
2010-04-12 08:36:31 51°18.899 2°55.424 12.5 316 8 102420 37
2010-04-12 08:36:35 51°18.904 2°55.444 13.5 282 8 102420 37
2010-04-12 08:36:42 51°18.914 2°55.479 13.5 318 8 102420 37
2010-04-12 08:36:46 51°18.919 2°55.499 13.9 279 8 102420 37
2010-04-12 08:36:51 51°18.927 2°55.524 13.3 320 8 102420 36
2010-04-12 08:36:56 51°18.934 2°55.549 12.8 280 8 102420 36
2010-04-12 08:37:02 51°18.942 2°55.579 12.3 320 8 102420 36
2010-04-12 08:37:06 51°18.948 2°55.6 13.8 278 8 102410 37
2010-04-12 08:37:11 51°18.954 2°55.625 13.9 319 8 102410 36
2010-04-12 08:37:16 51°18.961 2°55.65 12.5 286 8 102410 36
2010-04-12 08:37:22 51°18.97 2°55.68 13.5 320 8 102410 36
2010-04-12 08:37:26 51°18.976 2°55.7 13.1 285 8 102420 37
2010-04-12 08:37:31 51°18.983 2°55.726 14 317 8 102420 37
2010-04-12 08:37:37 51°18.991 2°55.756 14 282 8 102420 37
2010-04-12 08:37:42 51°18.998 2°55.782 13.5 319 8 102420 37
2010-04-12 08:37:46 51°19.004 2°55.801 15.3 279 8 102420 35
2010-04-12 08:37:51 51°19.01 2°55.827 14.4 317 8 102420 35
2010-04-12 08:37:56 51°19.018 2°55.851 12.7 283 8 102410 37
2010-04-12 08:38:02 51°19.026 2°55.882 15.3 317 8 102390 37
2010-04-12 08:38:06 51°19.032 2°55.902 14.3 285 8 102390 37
2010-04-12 08:38:11 51°19.039 2°55.928 14.3 318 7.9 102420 36
2010-04-12 08:38:16 51°19.046 2°55.953 14.3 283 7.9 102420 36
2010-04-12 08:38:22 51°19.054 2°55.984 14.3 320 8 102400 36
2010-04-12 08:38:26 51°19.059 2°56.004 13.4 282 8 102400 36
2010-04-12 08:38:31 51°19.066 2°56.029 13.9 319 8 102390 37
2010-04-12 08:38:35 51°19.072 2°56.049 14.3 283 8 102390 37
2010-04-12 08:38:42 51°19.081 2°56.084 13.9 318 8 102410 36
2010-04-12 08:38:46 51°19.087 2°56.104 13.1 279 8 102410 36
2010-04-12 08:38:51 51°19.094 2°56.13 13.8 319 8 102420 36
2010-04-12 08:38:56 51°19.101 2°56.154 15.3 281 8 102420 36
2010-04-12 08:39:02 51°19.109 2°56.185 14.5 317 8 102420 36
2010-04-12 08:39:06 51°19.115 2°56.205 14.2 283 8 102390 37
2010-04-12 08:39:11 51°19.121 2°56.23 15.1 319 8 102410 37
2010-04-12 08:39:16 51°19.129 2°56.255 12.8 283 8 102410 37
2010-04-12 08:39:22 51°19.137 2°56.286 13.9 322 8 102410 37
2010-04-12 08:39:26 51°19.143 2°56.305 13.2 284 8 102410 36
2010-04-12 08:39:31 51°19.15 2°56.331 13.2 319 8 102430 36
2010-04-12 08:39:36 51°19.157 2°56.356 11.7 283 8 102430 36
2010-04-12 08:39:41 51°19.164 2°56.381 13 321 8 102410 36
2010-04-12 08:39:46 51°19.171 2°56.406 14.4 281 8 102410 36
2010-04-12 08:39:51 51°19.179 2°56.429 11.8 320 8 102420 37
2010-04-12 08:39:57 51°19.188 2°56.459 13.4 285 8 102420 37
2010-04-12 08:40:02 51°19.197 2°56.483 13.8 322 8 102420 37
2010-04-12 08:40:06 51°19.203 2°56.502 14.2 281 8 102430 37
2010-04-12 08:40:11 51°19.211 2°56.526 13.5 321 8 102430 37
2010-04-12 08:40:16 51°19.219 2°56.55 13.4 287 8 102430 37
2010-04-12 08:40:22 51°19.23 2°56.579 15.5 321 8 102420 35
2010-04-12 08:40:26 51°19.236 2°56.598 15.2 287 8 102420 35
2010-04-12 08:40:31 51°19.245 2°56.622 14.5 322 8 102420 36
2010-04-12 08:40:36 51°19.254 2°56.645 14.8 283 8 102420 36
2010-04-12 08:40:42 51°19.264 2°56.674 14.4 321 8 102420 37
2010-04-12 08:40:46 51°19.271 2°56.693 17 284 8 102420 37
2010-04-12 08:40:51 51°19.28 2°56.717 13.1 321 8 102420 36
2010-04-12 08:40:55 51°19.286 2°56.736 14 279 8 102420 36
2010-04-12 08:41:02 51°19.298 2°56.77 12.2 320 8 102420 36
2010-04-12 08:41:06 51°19.305 2°56.788 12.9 -999 7.9 102420 37
2010-04-12 08:41:11 51°19.313 2°56.813 14 320 7.9 102420 36
2010-04-12 08:41:16 51°19.322 2°56.836 12.9 279 7.9 102420 36
2010-04-12 08:41:22 51°19.332 2°56.865 13.1 320 7.9 102420 36
2010-04-12 08:41:26 51°19.339 2°56.883 12.6 284 8 102400 37
2010-04-12 08:41:31 51°19.347 2°56.908 12.8 321 7.9 102410 37
2010-04-12 08:41:36 51°19.356 2°56.931 14.1 283 7.9 102410 37
2010-04-12 08:41:42 51°19.366 2°56.96 12.9 321 7.9 102410 37
2010-04-12 08:41:46 51°19.373 2°56.979 13.5 282 7.9 102420 37
2010-04-12 08:41:51 51°19.382 2°57.003 13.3 321 8 102410 36
2010-04-12 08:41:57 51°19.391 2°57.032 13.2 279 8 102410 36
2010-04-12 08:42:02 51°19.4 2°57.055 12.8 321 8 102410 36
2010-04-12 08:42:06 51°19.406 2°57.075 12.9 278 8 102430 36
2010-04-12 08:42:11 51°19.415 2°57.099 14.5 321 8 102430 36
2010-04-12 08:42:16 51°19.424 2°57.123 14 280 8 102410 36
2010-04-12 08:42:22 51°19.434 2°57.151 13.9 321 7.9 102420 36
2010-04-12 08:42:26 51°19.441 2°57.171 13.2 283 7.9 102420 36
2010-04-12 08:42:31 51°19.45 2°57.194 14.8 321 8 102420 37
2010-04-12 08:42:36 51°19.459 2°57.218 14.1 283 8 102420 37
2010-04-12 08:42:42 51°19.469 2°57.247 14.4 321 7.9 102410 36
2010-04-12 08:42:46 51°19.476 2°57.267 12.5 281 7.9 102410 36
2010-04-12 08:42:51 51°19.484 2°57.29 12.9 324 8 102410 36
2010-04-12 08:42:55 51°19.491 2°57.309 12.9 285 8 102410 36
2010-04-12 08:43:02 51°19.503 2°57.343 12.5 320 7.9 102420 35
2010-04-12 08:43:06 51°19.51 2°57.363 12.8 282 7.9 102420 35
2010-04-12 08:43:11 51°19.519 2°57.386 13.3 322 8 102410 37
2010-04-12 08:43:16 51°19.527 2°57.41 12.9 286 8 102410 37
2010-04-12 08:43:22 51°19.537 2°57.44 13 322 8 102410 37
2010-04-12 08:43:26 51°19.545 2°57.458 12.8 278 8 102410 37
2010-04-12 08:43:31 51°19.553 2°57.483 12.9 321 8 102410 37
2010-04-12 08:43:36 51°19.562 2°57.506 14.3 280 8 102410 37
2010-04-12 08:43:42 51°19.572 2°57.536 12.9 319 8 102410 37
2010-04-12 08:43:46 51°19.579 2°57.554 13.2 282 8 102420 36
2010-04-12 08:43:51 51°19.587 2°57.579 15.8 319 8 102420 37
2010-04-12 08:43:56 51°19.597 2°57.602 13.1 283 8 102420 37
2010-04-12 08:44:01 51°19.605 2°57.627 14.2 321 8 102410 37
2010-04-12 08:44:06 51°19.615 2°57.65 15 283 8 102410 37
2010-04-12 08:44:11 51°19.623 2°57.675 13 321 8 102430 36
2010-04-12 08:44:17 51°19.633 2°57.703 13.4 284 8 102430 36
2010-04-12 08:44:22 51°19.642 2°57.727 12.6 322 8 102430 36
2010-04-12 08:44:26 51°19.649 2°57.746 13.2 283 8 102410 37
2010-04-12 08:44:31 51°19.658 2°57.77 14.6 324 8 102410 37
2010-04-12 08:44:36 51°19.667 2°57.794 13.4 280 7.9 102400 36
2010-04-12 08:44:42 51°19.677 2°57.823 13.9 322 7.9 102430 36
2010-04-12 08:44:46 51°19.684 2°57.842 13.6 280 7.9 102430 36
2010-04-12 08:44:51 51°19.692 2°57.866 13.1 321 7.9 102400 37
2010-04-12 08:44:57 51°19.702 2°57.893 11.5 278 7.9 102400 37
2010-04-12 08:45:02 51°19.71 2°57.914 12.9 318 7.9 102420 37
2010-04-12 08:45:06 51°19.716 2°57.93 13.2 279 7.9 102420 37
2010-04-12 08:45:11 51°19.723 2°57.95 11.6 320 7.9 102390 36
2010-04-12 08:45:15 51°19.728 2°57.964 12.7 278 7.9 102390 36
2010-04-12 08:45:21 51°19.736 2°57.985 11.4 321 7.9 102390 36
2010-04-12 08:45:26 51°19.741 2°58.002 10.9 281 8 102400 37
2010-04-12 08:45:31 51°19.747 2°58.018 11.4 321 7.9 102400 36
2010-04-12 08:45:36 51°19.751 2°58.032 13 278 7.9 102400 36
2010-04-12 08:45:42 51°19.757 2°58.049 11.8 322 7.9 102400 36
2010-04-12 08:45:46 51°19.76 2°58.059 10.5 277 8 102410 35
2010-04-12 08:45:51 51°19.764 2°58.07 10.9 321 7.9 102400 37
2010-04-12 08:45:56 51°19.767 2°58.081 10.3 278 7.9 102400 37
2010-04-12 08:46:02 51°19.771 2°58.093 9.4 320 7.9 102400 37
2010-04-12 08:46:06 51°19.774 2°58.1 10.7 -999 7.9 102400 37
2010-04-12 08:46:11 51°19.776 2°58.108 11 320 7.9 102400 36
2010-04-12 08:46:16 51°19.779 2°58.116 10.4 281 7.9 102400 36
2010-04-12 08:46:21 51°19.781 2°58.123 8.8 319 7.9 102410 36
2010-04-12 08:46:26 51°19.782 2°58.129 9.6 282 7.9 102410 36
2010-04-12 08:46:31 51°19.783 2°58.135 10.7 31 7.9 102410 37
2010-04-12 08:46:37 51°19.784 2°58.142 11 281 7.9 102410 37
2010-04-12 08:46:42 51°19.783 2°58.146 10.7 38 7.9 102410 37
2010-04-12 08:46:46 51°19.783 2°58.15 10.2 278 7.9 102420 36
2010-04-12 08:46:51 51°19.782 2°58.154 10 34 7.9 102420 36
2010-04-12 08:46:56 51°19.782 2°58.157 10 282 7.9 102420 36
2010-04-12 08:47:02 51°19.78 2°58.16 10.1 237 7.9 102420 36
2010-04-12 08:47:06 51°19.779 2°58.162 9.9 282 7.9 102420 36
2010-04-12 08:47:11 51°19.777 2°58.163 8.6 243 7.9 102420 37
2010-04-12 08:47:17 51°19.776 2°58.164 9.1 286 7.9 102420 37
2010-04-12 08:47:22 51°19.774 2°58.165 9.8 246 8 102420 37
2010-04-12 08:47:26 51°19.773 2°58.166 8.5 278 8 102420 37
2010-04-12 08:47:31 51°19.771 2°58.167 11.4 246 7.9 102420 36
2010-04-12 08:47:35 51°19.77 2°58.167 9.3 279 7.9 102420 36
2010-04-12 08:47:42 51°19.767 2°58.169 11.5 247 8 102430 36
2010-04-12 08:47:46 51°19.765 2°58.169 11.6 283 8 102430 36
2010-04-12 08:47:51 51°19.763 2°58.17 12.5 248 8 102420 36
2010-04-12 08:47:56 51°19.761 2°58.17 11.6 286 8 102420 36
2010-04-12 08:48:02 51°19.759 2°58.171 12.3 248 8 102420 36
2010-04-12 08:48:06 51°19.757 2°58.172 11.1 -999 8 102440 36
2010-04-12 08:48:11 51°19.755 2°58.173 10.2 251 8 102440 37
2010-04-12 08:48:16 51°19.753 2°58.173 10.6 279 8 102440 37
2010-04-12 08:48:22 51°19.751 2°58.173 12.3 249 8 102440 37
2010-04-12 08:48:26 51°19.749 2°58.173 12 278 8 102440 35
2010-04-12 08:48:31 51°19.747 2°58.173 10.5 252 8 102430 37
2010-04-12 08:48:37 51°19.745 2°58.173 13.6 284 8 102430 37
2010-04-12 08:48:42 51°19.743 2°58.173 11.1 253 8 102430 37
2010-04-12 08:48:46 51°19.741 2°58.173 9.3 283 8 102430 37
2010-04-12 08:48:51 51°19.739 2°58.173 7.6 252 8 102430 37
2010-04-12 08:48:56 51°19.737 2°58.173 10.9 285 8 102440 36
2010-04-12 08:49:02 51°19.735 2°58.172 12.1 252 8 102440 36
2010-04-12 08:49:06 51°19.733 2°58.172 10.2 285 8 102430 36
2010-04-12 08:49:11 51°19.731 2°58.172 9.6 254 8 102440 35
2010-04-12 08:49:16 51°19.729 2°58.171 8.5 278 8 102440 35
2010-04-12 08:49:22 51°19.727 2°58.17 8.5 257 8 102450 36
2010-04-12 08:49:26 51°19.725 2°58.17 8.4 278 8 102450 36
2010-04-12 08:49:31 51°19.723 2°58.17 7.7 251 8 102430 37
2010-04-12 08:49:36 51°19.722 2°58.169 8.8 280 8 102430 37
2010-04-12 08:49:42 51°19.719 2°58.169 9 258 8 102450 36
2010-04-12 08:49:46 51°19.717 2°58.168 8.5 284 8 102450 36
2010-04-12 08:49:51 51°19.715 2°58.167 8.3 261 8 102450 38
2010-04-12 08:49:56 51°19.713 2°58.166 10.1 281 8 102450 38
2010-04-12 08:50:01 51°19.711 2°58.166 9.7 255 8.1 102450 36
2010-04-12 08:50:07 51°19.708 2°58.165 10.3 -999 8.1 102450 36
2010-04-12 08:50:11 51°19.707 2°58.164 9.7 258 8.1 102450 38
2010-04-12 08:50:16 51°19.705 2°58.163 10.6 283 8.1 102450 38
2010-04-12 08:50:21 51°19.702 2°58.163 9.7 256 8 102450 36
2010-04-12 08:50:27 51°19.7 2°58.162 10.1 284 8 102450 36
2010-04-12 08:50:31 51°19.698 2°58.161 9.1 259 8 102450 36
2010-04-12 08:50:36 51°19.696 2°58.16 9.8 278 8 102450 36
2010-04-12 08:50:41 51°19.694 2°58.16 9.8 259 8 102440 36
2010-04-12 08:50:46 51°19.692 2°58.159 8.3 283 8 102440 36
2010-04-12 08:50:51 51°19.69 2°58.158 9.5 255 8 102450 37
2010-04-12 08:50:56 51°19.688 2°58.157 9.8 282 8 102450 37
2010-04-12 08:51:02 51°19.686 2°58.156 9.9 257 8 102450 36
2010-04-12 08:51:06 51°19.684 2°58.155 8.7 279 8 102450 36
2010-04-12 08:51:11 51°19.682 2°58.155 8.1 257 8 102440 37
2010-04-12 08:51:17 51°19.68 2°58.154 9.5 280 8 102440 37
2010-04-12 08:51:22 51°19.678 2°58.153 9.2 257 8 102460 37
2010-04-12 08:51:26 51°19.676 2°58.152 10.4 285 8 102460 37
2010-04-12 08:51:31 51°19.674 2°58.151 7.9 255 8 102440 36
2010-04-12 08:51:37 51°19.671 2°58.15 9 284 8 102440 36
2010-04-12 08:51:41 51°19.67 2°58.149 9.6 257 8 102460 35
2010-04-12 08:51:46 51°19.668 2°58.149 9.3 283 8 102460 35
2010-04-12 08:51:51 51°19.665 2°58.148 9.4 256 8 102450 36
2010-04-12 08:51:56 51°19.663 2°58.147 8.7 284 8 102450 36
2010-04-12 08:52:01 51°19.662 2°58.147 9.8 258 8 102450 35
2010-04-12 08:52:07 51°19.659 2°58.146 8.5 -999 8 102450 35
2010-04-12 08:52:11 51°19.657 2°58.145 9.1 258 8 102450 36
2010-04-12 08:52:16 51°19.655 2°58.144 9.7 281 8 102450 36
2010-04-12 08:52:21 51°19.653 2°58.143 11.3 256 8 102440 36
2010-04-12 08:52:26 51°19.651 2°58.143 8.3 284 8 102440 36
2010-04-12 08:52:31 51°19.649 2°58.143 8.8 253 8 102440 37
2010-04-12 08:52:36 51°19.646 2°58.143 10.5 284 8 102440 37
2010-04-12 08:52:41 51°19.644 2°58.144 8.5 251 8 102450 37
2010-04-12 08:52:46 51°19.641 2°58.146 8.4 282 8 102450 37
2010-04-12 08:52:51 51°19.638 2°58.148 9.6 247 8 102430 36
2010-04-12 08:52:56 51°19.636 2°58.152 9.2 280 8 102430 36
2010-04-12 08:53:01 51°19.633 2°58.157 9.1 20 8 102440 36
2010-04-12 08:53:06 51°19.631 2°58.162 10.2 282 8 102440 36
2010-04-12 08:53:11 51°19.629 2°58.169 10.2 23 8 102440 36
2010-04-12 08:53:17 51°19.627 2°58.177 9.4 285 8 102440 36
2010-04-12 08:53:21 51°19.626 2°58.183 10.7 22 8 102440 35
2010-04-12 08:53:26 51°19.625 2°58.191 10.1 281 8 102440 35
2010-04-12 08:53:31 51°19.625 2°58.199 10.1 316 8 102420 37
2010-04-12 08:53:37 51°19.625 2°58.209 9.3 278 8 102420 37
2010-04-12 08:53:42 51°19.626 2°58.218 8.8 317 8 102420 35
2010-04-12 08:53:46 51°19.627 2°58.224 10 282 8 102420 35
2010-04-12 08:53:51 51°19.629 2°58.233 8.5 320 8 102410 37
2010-04-12 08:53:56 51°19.631 2°58.241 10.2 282 8 102410 37
2010-04-12 08:54:01 51°19.634 2°58.249 11.8 325 8 102420 37
2010-04-12 08:54:07 51°19.638 2°58.26 12.4 -999 8 102420 37
2010-04-12 08:54:11 51°19.641 2°58.268 10.9 322 8 102410 37
2010-04-12 08:54:16 51°19.646 2°58.278 12.5 282 8 102410 37
2010-04-12 08:54:21 51°19.65 2°58.29 12.3 324 8.1 102420 36
2010-04-12 08:54:26 51°19.655 2°58.302 12.7 287 8.1 102420 36
2010-04-12 08:54:31 51°19.661 2°58.314 14.6 325 8 102420 36
2010-04-12 08:54:36 51°19.666 2°58.326 14.4 279 8 102420 36
2010-04-12 08:54:41 51°19.672 2°58.34 14.9 322 8 102410 35
2010-04-12 08:54:47 51°19.679 2°58.357 13.7 285 8 102410 35
2010-04-12 08:54:51 51°19.684 2°58.368 14.8 323 8 102410 36
2010-04-12 08:54:56 51°19.69 2°58.384 14.6 280 8 102410 36
2010-04-12 08:55:01 51°19.696 2°58.4 14.3 322 8 102420 36
2010-04-12 08:55:07 51°19.703 2°58.419 15.5 279 8 102420 36
2010-04-12 08:55:11 51°19.708 2°58.433 13.3 323 8 102400 36
2010-04-12 08:55:16 51°19.713 2°58.45 14.6 283 8 102400 36
2010-04-12 08:55:21 51°19.719 2°58.467 15.1 320 8 102400 36
2010-04-12 08:55:26 51°19.725 2°58.485 14 282 8 102400 36
2010-04-12 08:55:31 51°19.731 2°58.505 13.9 321 8 102400 36
2010-04-12 08:55:36 51°19.738 2°58.525 14.3 282 8 102400 36
2010-04-12 08:55:41 51°19.746 2°58.545 16 323 8 102400 37
2010-04-12 08:55:46 51°19.753 2°58.568 14.5 282 8 102400 37
2010-04-12 08:55:51 51°19.762 2°58.589 16.8 323 8 102410 37
2010-04-12 08:55:57 51°19.77 2°58.618 15.7 283 8 102410 37
2010-04-12 08:56:01 51°19.778 2°58.636 17 324 8 102400 37
2010-04-12 08:56:06 51°19.786 2°58.66 17.4 -999 8 102400 37
2010-04-12 08:56:11 51°19.794 2°58.684 16.6 321 8 102400 37
2010-04-12 08:56:16 51°19.803 2°58.708 17.5 281 8 102400 37
2010-04-12 08:56:22 51°19.813 2°58.738 18.6 323 8 102390 35
2010-04-12 08:56:26 51°19.82 2°58.758 19 282 8 102390 35
2010-04-12 08:56:31 51°19.829 2°58.782 13.6 324 8 102400 36
2010-04-12 08:56:36 51°19.837 2°58.807 13.8 286 8 102400 36
2010-04-12 08:56:41 51°19.846 2°58.832 13.6 322 8 102380 36
2010-04-12 08:56:47 51°19.855 2°58.862 15 286 8 102380 36
2010-04-12 08:56:51 51°19.862 2°58.882 13.4 323 8 102390 36
2010-04-12 08:56:57 51°19.871 2°58.913 14.9 284 8 102390 36
2010-04-12 08:57:01 51°19.878 2°58.934 13.8 322 8 102400 37
2010-04-12 08:57:06 51°19.886 2°58.959 13.6 286 8 102400 37
2010-04-12 08:57:11 51°19.893 2°58.985 13.1 320 8 102390 36
2010-04-12 08:57:16 51°19.9 2°59.012 13.8 278 8 102390 36
2010-04-12 08:57:21 51°19.909 2°59.037 13.6 322 8 102390 37
2010-04-12 08:57:26 51°19.916 2°59.063 13.4 281 8 102390 37
2010-04-12 08:57:31 51°19.923 2°59.09 14.1 319 8 102400 36
2010-04-12 08:57:37 51°19.932 2°59.12 13 280 8 102400 36
2010-04-12 08:57:41 51°19.938 2°59.142 11.7 321 8 102400 36
2010-04-12 08:57:46 51°19.946 2°59.168 14.8 280 8 102400 36
2010-04-12 08:57:51 51°19.952 2°59.195 13.8 320 8 102390 36
2010-04-12 08:57:56 51°19.96 2°59.221 13.6 281 8 102390 36
2010-04-12 08:58:01 51°19.966 2°59.248 13.7 321 8 102390 36
2010-04-12 08:58:06 51°19.974 2°59.274 12.3 -999 8 102390 36
2010-04-12 08:58:11 51°19.98 2°59.302 14.3 318 8 102410 37
2010-04-12 08:58:16 51°19.987 2°59.328 14.9 287 8 102410 37
2010-04-12 08:58:22 51°19.994 2°59.361 17.3 320 8 102390 37
2010-04-12 08:58:26 51°20 2°59.381 16.3 283 8 102390 37
2010-04-12 08:58:31 51°20.006 2°59.409 17.6 320 8 102400 36
2010-04-12 08:58:36 51°20.013 2°59.435 15.4 286 8 102400 36
2010-04-12 08:58:42 51°20.021 2°59.468 15.3 318 8 102400 36
2010-04-12 08:58:47 51°20.027 2°59.494 14.1 282 8 102400 36
2010-04-12 08:58:51 51°20.033 2°59.515 14.3 320 8 102380 36
2010-04-12 08:58:57 51°20.04 2°59.547 15.4 284 8 102380 36
2010-04-12 08:59:02 51°20.048 2°59.574 14.2 318 8 102390 35
2010-04-12 08:59:07 51°20.053 2°59.601 15.1 282 8 102390 35
2010-04-12 08:59:11 51°20.059 2°59.622 13.2 319 8 102380 37
2010-04-12 08:59:16 51°20.065 2°59.649 14 277 8 102380 37
2010-04-12 08:59:21 51°20.072 2°59.675 13.4 319 8 102390 36
2010-04-12 08:59:27 51°20.08 2°59.708 12.9 281 8 102390 36
2010-04-12 08:59:31 51°20.085 2°59.729 13.8 321 8 102390 37
2010-04-12 08:59:37 51°20.092 2°59.761 11.9 283 8 102390 37
2010-04-12 08:59:41 51°20.098 2°59.782 14 320 8 102400 36
2010-04-12 08:59:46 51°20.105 2°59.809 15 284 8 102400 36
2010-04-12 08:59:51 51°20.111 2°59.836 15.1 321 8 102370 37
2010-04-12 08:59:57 51°20.119 2°59.868 13.9 280 8 102370 37
2010-04-12 09:00:02 51°20.126 2°59.895 13.3 319 8 102400 35
2010-04-12 09:00:06 51°20.131 2°59.916 15.5 -999 8 102400 35
2010-04-12 09:00:11 51°20.138 2°59.942 13.6 319 8 102390 37
2010-04-12 09:00:17 51°20.145 2°59.974 14.7 283 8 102390 37
2010-04-12 09:00:21 51°20.151 2°59.995 15.5 320 8 102380 36
2010-04-12 09:00:26 51°20.157 3°0.022 15.5 281 8 102380 36
2010-04-12 09:00:31 51°20.165 3°0.048 15.5 319 8 102390 37
2010-04-12 09:00:37 51°20.173 3°0.08 15.2 285 8 102390 37
2010-04-12 09:00:42 51°20.179 3°0.107 12.7 320 8 102380 36
2010-04-12 09:00:46 51°20.184 3°0.128 12.7 285 8 102380 36
2010-04-12 09:00:51 51°20.191 3°0.155 14.6 320 8 102380 36
2010-04-12 09:00:56 51°20.198 3°0.182 14.4 285 8 102380 36
2010-04-12 09:01:01 51°20.204 3°0.209 15.3 321 8 102380 36
2010-04-12 09:01:07 51°20.213 3°0.241 14.6 283 8 102380 36
2010-04-12 09:01:11 51°20.218 3°0.263 15.1 319 8 102390 35
2010-04-12 09:01:17 51°20.226 3°0.294 11.6 280 8 102390 35
2010-04-12 09:01:21 51°20.231 3°0.316 15.2 320 8 102380 36
2010-04-12 09:01:27 51°20.238 3°0.349 15.6 283 8 102380 36
2010-04-12 09:01:31 51°20.244 3°0.37 14.1 320 8 102380 36
2010-04-12 09:01:36 51°20.25 3°0.397 13.6 278 8 102380 36
2010-04-12 09:01:41 51°20.257 3°0.423 13.1 319 8 102380 35
2010-04-12 09:01:47 51°20.265 3°0.456 13.1 280 8 102380 35
2010-04-12 09:01:51 51°20.271 3°0.477 12.6 320 8 102380 36
2010-04-12 09:01:56 51°20.277 3°0.504 16.7 279 8 102380 36
2010-04-12 09:02:01 51°20.284 3°0.531 15.4 321 8 102390 36
2010-04-12 09:02:06 51°20.29 3°0.558 17.6 -999 8 102390 36
2010-04-12 09:02:11 51°20.297 3°0.585 15.2 321 8.1 102380 36
2010-04-12 09:02:16 51°20.304 3°0.611 13.8 285 8.1 102380 36
2010-04-12 09:02:22 51°20.312 3°0.643 13.6 323 8.1 102400 36
2010-04-12 09:02:26 51°20.317 3°0.665 13 287 8.1 102400 36
2010-04-12 09:02:31 51°20.324 3°0.692 12.6 320 8 102380 37
2010-04-12 09:02:37 51°20.333 3°0.723 13.9 279 8 102380 37
2010-04-12 09:02:42 51°20.339 3°0.75 12.3 319 8 102380 35
2010-04-12 09:02:46 51°20.346 3°0.771 12 278 8 102380 35
2010-04-12 09:02:51 51°20.352 3°0.799 14 318 8 102390 36
2010-04-12 09:02:56 51°20.359 3°0.826 13.5 283 8 102390 36
2010-04-12 09:03:01 51°20.365 3°0.853 14 320 8 102390 36
2010-04-12 09:03:06 51°20.372 3°0.879 16.8 283 8 102390 36
2010-04-12 09:03:11 51°20.379 3°0.906 15.2 321 8.1 102390 37
2010-04-12 09:03:16 51°20.386 3°0.933 15.1 285 8.1 102390 37
2010-04-12 09:03:22 51°20.394 3°0.965 13.4 318 8 102380 37
2010-04-12 09:03:26 51°20.4 3°0.986 12.6 282 8 102380 37
2010-04-12 09:03:31 51°20.406 3°1.013 15 317 8 102370 37
2010-04-12 09:03:37 51°20.414 3°1.045 13.3 282 8 102370 37
2010-04-12 09:03:41 51°20.42 3°1.066 13 319 8 102380 36
2010-04-12 09:03:47 51°20.428 3°1.099 13.1 282 8 102380 36
2010-04-12 09:03:51 51°20.434 3°1.12 13.2 322 8 102370 36
2010-04-12 09:03:56 51°20.441 3°1.146 11.8 282 8 102370 36
2010-04-12 09:04:01 51°20.448 3°1.173 13.4 320 8 102380 37
2010-04-12 09:04:06 51°20.454 3°1.2 12.7 -999 8 102380 37
2010-04-12 09:04:11 51°20.461 3°1.227 15.7 318 8 102380 36
2010-04-12 09:04:16 51°20.468 3°1.254 14.2 281 8 102380 36
2010-04-12 09:04:21 51°20.475 3°1.281 15.4 317 8 102390 35
2010-04-12 09:04:26 51°20.482 3°1.308 13.4 280 8 102390 35
2010-04-12 09:04:31 51°20.489 3°1.335 14.6 319 8 102370 37
2010-04-12 09:04:36 51°20.496 3°1.361 14.6 278 8 102370 37
2010-04-12 09:04:42 51°20.503 3°1.394 14.8 321 8 102380 37
2010-04-12 09:04:46 51°20.509 3°1.415 15.3 284 8 102380 37
2010-04-12 09:04:51 51°20.516 3°1.442 14.6 318 8 102370 37
2010-04-12 09:04:55 51°20.522 3°1.464 13.4 283 8 102370 37
2010-04-12 09:05:02 51°20.531 3°1.501 15.7 322 8 102370 36
2010-04-12 09:05:06 51°20.537 3°1.522 15.7 279 8 102370 36
2010-04-12 09:05:11 51°20.544 3°1.549 15.6 319 8 102390 37
2010-04-12 09:05:16 51°20.55 3°1.576 15.1 279 8 102390 37
2010-04-12 09:05:21 51°20.558 3°1.603 13.7 321 8 102380 36
2010-04-12 09:05:26 51°20.565 3°1.63 14 282 8 102380 36
2010-04-12 09:05:31 51°20.572 3°1.656 13.6 322 8 102380 36
2010-04-12 09:05:36 51°20.579 3°1.684 15.8 283 8 102380 36
2010-04-12 09:05:41 51°20.586 3°1.711 13.7 319 8 102370 36
2010-04-12 09:05:46 51°20.593 3°1.737 13.9 286 8 102370 36
2010-04-12 09:05:51 51°20.6 3°1.764 15.1 320 8 102370 36
2010-04-12 09:05:57 51°20.607 3°1.797 13.6 287 8 102370 36
2010-04-12 09:06:01 51°20.613 3°1.818 14.2 318 8 102390 37
2010-04-12 09:06:07 51°20.621 3°1.851 14.1 -999 8 102390 37
2010-04-12 09:06:11 51°20.627 3°1.872 13.8 322 8 102380 36
2010-04-12 09:06:16 51°20.634 3°1.899 13.9 287 8 102380 36
2010-04-12 09:06:21 51°20.641 3°1.926 14.4 320 8 102380 36
2010-04-12 09:06:26 51°20.648 3°1.953 15.7 279 8 102380 36
2010-04-12 09:06:31 51°20.655 3°1.98 15.2 318 8 102370 37
2010-04-12 09:06:36 51°20.662 3°2.007 14.8 284 8 102370 37
2010-04-12 09:06:41 51°20.669 3°2.034 13.1 319 8 102370 36
2010-04-12 09:06:46 51°20.676 3°2.061 15.5 285 8 102370 36
2010-04-12 09:06:51 51°20.682 3°2.088 13.8 321 8 102380 36
2010-04-12 09:06:56 51°20.69 3°2.115 15.1 281 8 102380 36
2010-04-12 09:07:02 51°20.698 3°2.148 15.7 320 8 102380 35
2010-04-12 09:07:06 51°20.704 3°2.168 13.9 283 8 102380 35
2010-04-12 09:07:11 51°20.71 3°2.196 15.9 318 8 102380 36
2010-04-12 09:07:15 51°20.717 3°2.217 15.8 280 8 102380 36
2010-04-12 09:07:22 51°20.726 3°2.256 13.3 319 8 102370 36
2010-04-12 09:07:26 51°20.733 3°2.277 13.8 284 8 102370 36
2010-04-12 09:07:31 51°20.739 3°2.304 15.2 319 8 102370 37
2010-04-12 09:07:36 51°20.747 3°2.331 15.3 284 8 102370 37
2010-04-12 09:07:41 51°20.753 3°2.358 13.8 319 8 102380 37
2010-04-12 09:07:47 51°20.762 3°2.39 13.5 283 8 102380 37
2010-04-12 09:07:51 51°20.767 3°2.412 14.2 320 8 102380 36
2010-04-12 09:07:56 51°20.775 3°2.439 11.7 285 8 102380 36
2010-04-12 09:08:01 51°20.781 3°2.467 12.5 321 8 102380 36
2010-04-12 09:08:06 51°20.789 3°2.494 13.3 279 8 102380 36
2010-04-12 09:08:11 51°20.796 3°2.521 13.1 320 8 102380 37
2010-04-12 09:08:16 51°20.802 3°2.547 14.5 284 8 102380 37
2010-04-12 09:08:22 51°20.81 3°2.58 16.1 317 8 102370 36
2010-04-12 09:08:26 51°20.817 3°2.602 13.8 285 8 102370 36
2010-04-12 09:08:31 51°20.823 3°2.629 14 319 8 102380 37
2010-04-12 09:08:37 51°20.832 3°2.661 14.5 281 8 102380 37
2010-04-12 09:08:41 51°20.837 3°2.684 15.5 318 8 102380 36
2010-04-12 09:08:46 51°20.845 3°2.71 12.7 282 8 102380 36
2010-04-12 09:08:51 51°20.851 3°2.738 12.4 319 8 102380 36
2010-04-12 09:08:56 51°20.859 3°2.765 15.8 283 8 102380 36
2010-04-12 09:09:01 51°20.865 3°2.792 14.8 320 8 102380 37
2010-04-12 09:09:06 51°20.872 3°2.819 13.9 286 8 102380 37
2010-04-12 09:09:11 51°20.879 3°2.847 15.7 320 8 102370 37
2010-04-12 09:09:17 51°20.888 3°2.879 16.5 280 8 102370 37
2010-04-12 09:09:21 51°20.894 3°2.901 16 318 8 102360 36
2010-04-12 09:09:27 51°20.902 3°2.934 15.5 285 8 102360 36
2010-04-12 09:09:31 51°20.908 3°2.956 14.1 319 8 102370 36
2010-04-12 09:09:37 51°20.917 3°2.988 14.3 285 8 102370 36
2010-04-12 09:09:42 51°20.923 3°3.016 14.8 321 7.9 102370 35
2010-04-12 09:09:46 51°20.929 3°3.038 16.1 283 7.9 102370 35
2010-04-12 09:09:51 51°20.936 3°3.065 14.5 318 8 102370 37
2010-04-12 09:09:56 51°20.943 3°3.092 13.9 286 8 102370 37
2010-04-12 09:10:01 51°20.951 3°3.119 16.2 318 8 102380 37
2010-04-12 09:10:06 51°20.958 3°3.146 13.4 279 8 102380 37
2010-04-12 09:10:11 51°20.965 3°3.174 17 319 8 102390 36
2010-04-12 09:10:16 51°20.972 3°3.201 18.1 281 8 102390 36
2010-04-12 09:10:21 51°20.979 3°3.229 16.1 318 8 102380 36
2010-04-12 09:10:27 51°20.988 3°3.261 13.1 280 8 102380 36
2010-04-12 09:10:31 51°20.993 3°3.283 15.6 320 8 102370 36
2010-04-12 09:10:36 51°21 3°3.31 15.5 285 8 102370 36
2010-04-12 09:10:41 51°21.007 3°3.338 12.6 319 8 102370 37
2010-04-12 09:10:46 51°21.014 3°3.365 14.9 285 8 102370 37
2010-04-12 09:10:51 51°21.021 3°3.392 13.8 319 8 102370 36
2010-04-12 09:10:56 51°21.028 3°3.42 15.2 285 8 102370 36
2010-04-12 09:11:01 51°21.035 3°3.447 12.9 319 8 102380 36
2010-04-12 09:11:06 51°21.042 3°3.474 14.5 281 8 102380 36
2010-04-12 09:11:11 51°21.049 3°3.501 15.6 321 8 102380 36
2010-04-12 09:11:16 51°21.055 3°3.529 13.2 279 8 102380 36
2010-04-12 09:11:22 51°21.064 3°3.561 15.3 317 8 102380 36
2010-04-12 09:11:26 51°21.07 3°3.583 13.2 286 8 102380 36
2010-04-12 09:11:31 51°21.078 3°3.61 13.1 318 8 102370 37
2010-04-12 09:11:37 51°21.086 3°3.643 15.4 281 8 102370 37
2010-04-12 09:11:41 51°21.092 3°3.664 15.5 320 8 102360 36
2010-04-12 09:11:46 51°21.099 3°3.692 18.1 283 8 102360 36
2010-04-12 09:11:51 51°21.107 3°3.719 14.7 319 8 102370 36
2010-04-12 09:11:56 51°21.114 3°3.746 14.2 284 8 102370 36
2010-04-12 09:12:01 51°21.121 3°3.773 13.7 319 8 102380 36
2010-04-12 09:12:06 51°21.129 3°3.799 14 284 8 102380 36
2010-04-12 09:12:11 51°21.136 3°3.827 13.4 320 8 102370 36
2010-04-12 09:12:16 51°21.143 3°3.854 13.4 279 8 102370 36
2010-04-12 09:12:22 51°21.153 3°3.886 15.7 319 8 102370 35
2010-04-12 09:12:26 51°21.158 3°3.908 15 279 8 102370 35
2010-04-12 09:12:31 51°21.165 3°3.935 14.9 319 8 102380 37
2010-04-12 09:12:37 51°21.174 3°3.968 18.3 284 8 102380 37
2010-04-12 09:12:41 51°21.179 3°3.99 15.1 318 8 102380 37
2010-04-12 09:12:47 51°21.188 3°4.022 14.5 281 8 102380 37
2010-04-12 09:12:51 51°21.194 3°4.043 17.3 318 8 102360 36
2010-04-12 09:12:56 51°21.2 3°4.071 16.1 281 8 102360 36
2010-04-12 09:13:01 51°21.208 3°4.098 14.5 322 8 102370 36
2010-04-12 09:13:06 51°21.215 3°4.125 14.5 278 8 102370 36
2010-04-12 09:13:11 51°21.222 3°4.152 14.3 315 8 102360 36
2010-04-12 09:13:16 51°21.229 3°4.179 17.1 281 8 102360 36
2010-04-12 09:13:21 51°21.236 3°4.206 12.8 321 8 102350 37
2010-04-12 09:13:26 51°21.243 3°4.233 15.5 282 8 102350 37
2010-04-12 09:13:31 51°21.25 3°4.26 17.5 317 7.9 102380 36
2010-04-12 09:13:36 51°21.257 3°4.287 16.4 283 7.9 102380 36
2010-04-12 09:13:42 51°21.266 3°4.32 16 318 7.9 102360 37
2010-04-12 09:13:46 51°21.271 3°4.342 15.1 283 7.9 102360 37
2010-04-12 09:13:51 51°21.278 3°4.369 14 319 8 102350 36
2010-04-12 09:13:57 51°21.287 3°4.401 13.3 279 8 102350 36
2010-04-12 09:14:02 51°21.294 3°4.428 15.5 319 8 102360 36
2010-04-12 09:14:06 51°21.3 3°4.45 13.7 287 8 102360 36
2010-04-12 09:14:11 51°21.307 3°4.478 14.5 319 8 102360 37
2010-04-12 09:14:16 51°21.314 3°4.505 14.5 280 8 102360 37
2010-04-12 09:14:21 51°21.321 3°4.532 13.7 319 8 102380 36
2010-04-12 09:14:27 51°21.329 3°4.564 12.1 283 8 102380 36
2010-04-12 09:14:31 51°21.335 3°4.586 14.3 318 8 102370 36
2010-04-12 09:14:36 51°21.342 3°4.613 13.3 286 8 102370 36
2010-04-12 09:14:42 51°21.351 3°4.646 13.6 319 8 102370 36
2010-04-12 09:14:47 51°21.358 3°4.673 14.4 287 8 102370 36
2010-04-12 09:14:51 51°21.363 3°4.695 18.3 319 8 102360 36
2010-04-12 09:14:56 51°21.371 3°4.722 15.1 279 8 102360 36
2010-04-12 09:15:01 51°21.376 3°4.751 14.6 317 8 102330 35
2010-04-12 09:15:07 51°21.384 3°4.784 13.3 282 8 102330 35
2010-04-12 09:15:11 51°21.389 3°4.806 17 317 8 102360 36
2010-04-12 09:15:16 51°21.394 3°4.835 15.2 280 8 102360 36
2010-04-12 09:15:21 51°21.401 3°4.863 13.7 317 8 102350 36
2010-04-12 09:15:26 51°21.406 3°4.891 13.4 287 8 102350 36
2010-04-12 09:15:31 51°21.412 3°4.919 16.3 316 8 102360 36
2010-04-12 09:15:36 51°21.418 3°4.947 15.8 281 8 102360 36
2010-04-12 09:15:41 51°21.424 3°4.975 18 317 8 102350 36
2010-04-12 09:15:46 51°21.43 3°5.003 17 287 8 102350 36
2010-04-12 09:15:51 51°21.435 3°5.031 15.1 319 8 102350 36
2010-04-12 09:15:56 51°21.441 3°5.059 15.3 278 8 102350 36
2010-04-12 09:16:02 51°21.449 3°5.093 14.8 316 7.9 102350 36
2010-04-12 09:16:06 51°21.453 3°5.115 15 282 7.9 102350 36
2010-04-12 09:16:11 51°21.459 3°5.144 13.3 320 7.9 102340 36
2010-04-12 09:16:17 51°21.466 3°5.178 19.1 281 7.9 102340 36
2010-04-12 09:16:22 51°21.472 3°5.206 15.4 316 7.9 102350 36
2010-04-12 09:16:27 51°21.478 3°5.234 14.7 285 7.9 102350 36
2010-04-12 09:16:31 51°21.483 3°5.257 14.6 317 8 102340 37
2010-04-12 09:16:37 51°21.489 3°5.291 16 281 8 102340 37
2010-04-12 09:16:42 51°21.496 3°5.319 16 315 8 102360 36
2010-04-12 09:16:46 51°21.5 3°5.342 16.3 280 8 102360 36
2010-04-12 09:16:51 51°21.507 3°5.37 13.5 318 8 102340 36
2010-04-12 09:16:56 51°21.512 3°5.399 15.1 283 8 102340 36
2010-04-12 09:17:01 51°21.518 3°5.427 14.1 316 8 102360 37
2010-04-12 09:17:07 51°21.525 3°5.462 15.7 282 8 102360 37
2010-04-12 09:17:11 51°21.529 3°5.485 16.8 319 8 102340 37
2010-04-12 09:17:16 51°21.535 3°5.513 16.4 281 8 102340 37
2010-04-12 09:17:21 51°21.541 3°5.541 15.6 318 8 102360 36
2010-04-12 09:17:26 51°21.547 3°5.569 14.8 281 8 102360 36
2010-04-12 09:17:31 51°21.553 3°5.597 14.5 22 8 102310 37
2010-04-12 09:17:36 51°21.559 3°5.625 15.6 279 8 102310 37
2010-04-12 09:17:41 51°21.565 3°5.654 17 317 8 102350 35
2010-04-12 09:17:46 51°21.571 3°5.682 15.4 283 8 102350 35
2010-04-12 09:17:51 51°21.577 3°5.71 15 318 8 102360 36
2010-04-12 09:17:56 51°21.582 3°5.739 15.9 281 8 102360 36
2010-04-12 09:18:01 51°21.589 3°5.767 14.5 317 7.9 102340 36
2010-04-12 09:18:06 51°21.594 3°5.796 12.4 283 7.9 102340 36
2010-04-12 09:18:11 51°21.601 3°5.824 13.1 319 8 102350 36
2010-04-12 09:18:17 51°21.607 3°5.858 15.1 281 8 102350 36
2010-04-12 09:18:21 51°21.613 3°5.88 13.8 319 8 102360 36
2010-04-12 09:18:26 51°21.618 3°5.91 17.3 280 8 102360 36
2010-04-12 09:18:31 51°21.624 3°5.938 16.7 22 8 102360 36
2010-04-12 09:18:37 51°21.63 3°5.972 15.2 280 8 102360 36
2010-04-12 09:18:42 51°21.637 3°6 14.4 316 8 102350 36
2010-04-12 09:18:46 51°21.641 3°6.023 14.4 278 8 102350 36
2010-04-12 09:18:51 51°21.648 3°6.051 14.8 318 7.9 102360 36
2010-04-12 09:18:56 51°21.653 3°6.08 13.7 280 7.9 102360 36
2010-04-12 09:19:02 51°21.661 3°6.114 14.4 319 8 102350 36
2010-04-12 09:19:07 51°21.666 3°6.143 15.7 -999 8 102350 36
2010-04-12 09:19:11 51°21.672 3°6.165 15.5 319 8 102360 36
2010-04-12 09:19:17 51°21.678 3°6.199 13.7 279 8 102360 36